Regional Weather Roundup
Issued by NWS Midland/Odessa, TX

Home | Current Version | Previous Version | Text Only | Print | Product List | Glossary On
Versions: 1 2 3 4 5 6 7 8 9 10 11 12 13 14 15 16 17 18 19 20 21 22 23 24 25 26 27 28 29 30 31 32 33 34 35 36 37 38 39 40 41 42 43 44 45 46 47 48 49 50
000
ASUS44 KMAF 221310
RWRMAF
MIDLAND AREA WEATHER ROUNDUP
NATIONAL WEATHER SERVICE MIDLAND TX
800 AM CDT TUE JUL 22 2014

...IN SOUTHWEST TEXAS AND SOUTHEAST NEW MEXICO...

CITY           SKY/WX    TMP DP  RH WIND       PRES   REMARKS
ALPINE         PTCLDY    69  66  89 S3        30.25R
ANDREWS        NOT AVBL
ARTESIA        CLEAR     75  64  69 SE9       30.15R
BIG SPRING       N/A     82  70  68 SE3       30.14R
CARLSBAD       CLEAR     77  68  73 E8        30.13R
DRYDEN           N/A     81  72  74 E6        30.07R
FORT STOCKTON  MOSUNNY   76  67  73 S12       30.10R
GUAD PASS      CLEAR     70  62  76 NE22      30.27R
HOBBS          SUNNY     73  61  64 E9        30.16F
MARFA          PTCLDY    66  63  88 N3        30.24R
MIDLAND AIRPK  PTSUNNY   79  71  74 N3        30.14R
MIDLAND INTL   PTSUNNY   77  70  79 S10       30.11S HAZE
ODESSA         PTSUNNY   78  70  76 SE12      30.12S HAZE
PECOS          MOSUNNY   75  68  78 NE6       30.08R
PRESIDIO       FAIR      82  66  57 NE8       30.06S
SEMINOLE       PTSUNNY   75  63  65 CALM      30.16F
SNYDER         MOSUNNY   75  68  78 S5        30.12R
WINK           SUNNY     78  70  76 E6        30.10R
$$
...OTHER STATIONS IN TEXAS...

CITY           SKY/WX    TMP DP  RH WIND       PRES   REMARKS
ABILENE        PTSUNNY   78  71  79 S7        30.10R
AMARILLO       PTSUNNY   74  63  68 SE5       30.16R
AUSTIN         CLOUDY    76  74  93 CALM      30.06R
BROWNSVILLE      N/A     80  78  94 MISG      30.00R
CORPUS CHRISTI PTSUNNY   81  78  91 SE10      30.01R
DALLAS FTW     CLOUDY    80  73  79 SE5       30.07R HAZE
DEL RIO        PTSUNNY   79  72  79 E10       30.02R
EL PASO        PTCLDY    79  57  47 S7        30.12R
HOUSTON INT    MOSUNNY   81  76  84 W3        30.04R
LUBBOCK        CLOUDY    77  66  68 SE9       30.11F
SAN ANGELO     MOSUNNY   76  69  79 CALM      30.09R
SAN ANTONIO    PTSUNNY   78  74  87 SE7       30.07R
WACO           PTSUNNY   79  74  84 S7        30.06R
WICHITA FALLS  NOT AVBL
$$
...OTHER LOCATIONS IN NEW MEXICO...

CITY           SKY/WX    TMP DP  RH WIND       PRES   REMARKS
ALAMAGORDO     CLEAR     72  52  49 NE3       30.17R
ALBUQUERQUE    MOCLDY    78  50  37 NE3       30.27R
CANNON AFB     PTSUNNY   68  65  91 W7        30.18R
CLOVIS         NOT AVBL
HOLLOMAN AFB   CLEAR     72  53  51 E5        30.15R
ROSWELL        SUNNY     73  64  73 SW7       30.14S
RUIDOSO        CLEAR     63  52  67 MISG      30.40S
SANTA FE       PTCLDY    62  51  67 N6        30.36R
TRUTH OR CONSE PTCLDY    74  51  44 NW5       30.20R
TUCUMCARI      SUNNY     72  63  73 W9        30.17R
$$


USA.gov is the U.S. government's official web portal to all federal, state and local government web resources and services.